Hourly Weather Le Pontet

Today, 24 January, Sunday

Time Temperature Precipitation Wind Pressure Humidity
00:00 +5°C° 0 mm 1 mps 742 mmHg 70%
01:00 +3°C° 0 mm 2 mps 742 mmHg 72%
02:00 +2°C° 0 mm 3 mps 741 mmHg 73%
03:00 +1°C° 0 mm 3 mps 741 mmHg 75%
04:00 0°C° 0 mm 4 mps 741 mmHg 75%
05:00 0°C° 0 mm 4 mps 741 mmHg 75%
06:00 0°C° 0 mm 5 mps 741 mmHg 75%
07:00 +1°C° 0 mm 5 mps 742 mmHg 72%
08:00 +1°C° 0 mm 6 mps 742 mmHg 69%
09:00 +2°C° 0 mm 6 mps 742 mmHg 66%
10:00 +3°C° 0 mm 6 mps 742 mmHg 59%
11:00 +4°C° 0 mm 6 mps 742 mmHg 52%
12:00 +7°C° 0 mm 5 mps 743 mmHg 45%
13:00 +7°C° 0 mm 5 mps 743 mmHg 46%
14:00 +7°C° 0 mm 4 mps 743 mmHg 47%
15:00 +8°C° 0 mm 3 mps 743 mmHg 48%
16:00 +7°C° 0 mm 3 mps 743 mmHg 57%
17:00 +5°C° 0 mm 3 mps 744 mmHg 66%
18:00 +4°C° 0 mm 3 mps 744 mmHg 75%
19:00 +3°C° 0 mm 3 mps 745 mmHg 76%
20:00 +3°C° 0 mm 4 mps 745 mmHg 77%
21:00 +3°C° 0 mm 4 mps 746 mmHg 78%
22:00 +1°C° 0 mm 4 mps 746 mmHg 76%
23:00 +1°C° 0 mm 4 mps 747 mmHg 73%

Tomorrow, 25 January, Monday

Time Temperature Precipitation Wind Pressure Humidity
00:00 +1°C° 0 mm 3 mps 748 mmHg 71%
01:00 +1°C° 0 mm 3 mps 748 mmHg 71%
02:00 0°C° 0 mm 3 mps 748 mmHg 70%
03:00 0°C° 0 mm 3 mps 749 mmHg 70%
04:00 +1°C° 0 mm 2 mps 749 mmHg 70%
05:00 -1°C° 0 mm 2 mps 750 mmHg 71%
06:00 -1°C° 0 mm 2 mps 750 mmHg 71%
07:00 +1°C° 0 mm 2 mps 751 mmHg 67%
08:00 +2°C° 0 mm 2 mps 752 mmHg 63%
09:00 +2°C° 0 mm 3 mps 752 mmHg 59%
10:00 +3°C° 0 mm 4 mps 752 mmHg 57%
11:00 +4°C° 0 mm 4 mps 753 mmHg 54%
12:00 +5°C° 0 mm 5 mps 753 mmHg 51%
13:00 +5°C° 0 mm 5 mps 753 mmHg 51%
14:00 +5°C° 0 mm 4 mps 753 mmHg 52%
15:00 +5°C° 0 mm 4 mps 752 mmHg 53%
16:00 +4°C° 0 mm 4 mps 753 mmHg 58%
17:00 +3°C° 0 mm 3 mps 753 mmHg 62%
18:00 +3°C° 0 mm 2 mps 754 mmHg 67%
19:00 +2°C° 0 mm 2 mps 754 mmHg 67%
20:00 +2°C° 0 mm 2 mps 754 mmHg 67%
21:00 +2°C° 0 mm 2 mps 755 mmHg 68%
22:00 +1°C° 0 mm 2 mps 755 mmHg 69%
23:00 +1°C° 0 mm 2 mps 755 mmHg 70%

Day after tomorrow, 26 January, Tuesday

Time Temperature Precipitation Wind Pressure Humidity
00:00 +1°C° 0 mm 2 mps 755 mmHg 71%
01:00 +1°C° 0 mm 2 mps 755 mmHg 71%
02:00 +1°C° 0 mm 2 mps 755 mmHg 72%
03:00 -1°C° 0 mm 2 mps 755 mmHg 72%
04:00 -1°C° 0 mm 2 mps 755 mmHg 73%
05:00 -1°C° 0 mm 2 mps 755 mmHg 73%
06:00 -1°C° 0 mm 2 mps 755 mmHg 73%
07:00 0°C° 0 mm 3 mps 756 mmHg 69%
08:00 +1°C° 0 mm 3 mps 756 mmHg 65%
09:00 +1°C° 0 mm 4 mps 756 mmHg 62%
10:00 +4°C° 0 mm 4 mps 756 mmHg 60%
11:00 +5°C° 0 mm 5 mps 756 mmHg 58%
12:00 +6°C° 0 mm 5 mps 755 mmHg 56%
13:00 +6°C° 0 mm 5 mps 755 mmHg 57%
14:00 +6°C° 0 mm 4 mps 755 mmHg 58%
15:00 +7°C° 0 mm 3 mps 755 mmHg 59%
16:00 +5°C° 0 mm 3 mps 755 mmHg 64%
17:00 +5°C° 0 mm 2 mps 755 mmHg 68%
18:00 +4°C° 0 mm 2 mps 755 mmHg 73%
19:00 +4°C° 0 mm 2 mps 755 mmHg 72%
20:00 +4°C° 0 mm 2 mps 755 mmHg 72%
21:00 +4°C° 0 mm 2 mps 755 mmHg 72%
22:00 +4°C° 0 mm 2 mps 755 mmHg 72%
23:00 +5°C° 0 mm 1 mps 755 mmHg 72%

27 January, Wednesday

Time Temperature Precipitation Wind Pressure Humidity
00:00 +5°C° 0 mm 1 mps 755 mmHg 72%
01:00 +4°C° 0 mm 2 mps 755 mmHg 75%
02:00 +3°C° 0 mm 2 mps 755 mmHg 78%
03:00 +3°C° 0 mm 2 mps 754 mmHg 81%
04:00 +3°C° 0 mm 2 mps 754 mmHg 82%
05:00 +3°C° 0 mm 2 mps 755 mmHg 83%
06:00 +2°C° 0 mm 3 mps 755 mmHg 85%
07:00 +4°C° 0 mm 3 mps 755 mmHg 82%
08:00 +5°C° 0 mm 3 mps 755 mmHg 79%
09:00 +7°C° 0 mm 3 mps 755 mmHg 76%
10:00 +8°C° 0 mm 4 mps 756 mmHg 71%
11:00 +10°C° 0 mm 5 mps 756 mmHg 65%
12:00 +13°C° 0 mm 6 mps 756 mmHg 60%
13:00 +11°C° 0 mm 6 mps 756 mmHg 60%
14:00 +11°C° 0 mm 6 mps 755 mmHg 61%
15:00 +11°C° 0 mm 7 mps 755 mmHg 61%
16:00 +9°C° 0 mm 6 mps 756 mmHg 65%
17:00 +8°C° 0 mm 6 mps 756 mmHg 68%
18:00 +7°C° 0 mm 5 mps 756 mmHg 72%
19:00 +6°C° 0 mm 5 mps 756 mmHg 74%
20:00 +6°C° 0 mm 4 mps 756 mmHg 75%
21:00 +5°C° 0 mm 4 mps 756 mmHg 76%
22:00 +5°C° 0 mm 3 mps 756 mmHg 76%
23:00 +5°C° 0 mm 3 mps 756 mmHg 76%

28 January, Thursday

Time Temperature Precipitation Wind Pressure Humidity
00:00 +5°C° 0 mm 2 mps 756 mmHg 76%
01:00 +5°C° 0 mm 2 mps 756 mmHg 76%
02:00 +5°C° 0 mm 2 mps 756 mmHg 76%
03:00 +5°C° 0 mm 2 mps 756 mmHg 75%
04:00 +5°C° 0.1 mm 2 mps 756 mmHg 76%
05:00 +6°C° 0.1 mm 2 mps 756 mmHg 77%
06:00 +6°C° 0.1 mm 2 mps 756 mmHg 77%
07:00 +7°C° 0 mm 2 mps 756 mmHg 76%
08:00 +7°C° 0 mm 2 mps 756 mmHg 75%
09:00 +8°C° 0 mm 2 mps 756 mmHg 73%
10:00 +9°C° 0 mm 2 mps 756 mmHg 71%
11:00 +12°C° 0 mm 2 mps 756 mmHg 68%
12:00 +12°C° 0 mm 3 mps 756 mmHg 65%
13:00 +13°C° 0 mm 2 mps 755 mmHg 67%
14:00 +13°C° 0 mm 2 mps 755 mmHg 69%
15:00 +14°C° 0 mm 2 mps 755 mmHg 71%
16:00 +13°C° 0 mm 2 mps 755 mmHg 74%
17:00 +12°C° 0 mm 2 mps 755 mmHg 76%
18:00 +10°C° 0 mm 3 mps 755 mmHg 79%

29 January, Friday

Time Temperature Precipitation Wind Pressure Humidity
Show more

We Need Your Consent

Meteoprog and our Service Providers may store and access personal data such as cookies, device identifiers or other similar technologies on your device and process such data to personalise content and ads, as well as provide social media features and to analyse the traffic.

  • Store and/or access information on your device

    Cookies, device identifiers or other information can be stored or accessed on your device for the purposes indicated above.

  • Personalised ads and content, ad and content measurement, audience insights, and products development

    Ads and content can be personalised based on a profile. More data can be added to better personalise ads and content. Ad and content performance can be measured. Insights about the audience who saw the ads and content can be derived. Such data can be used to develop or improve user’s experience, systems and software.

By clicking ‘I Agree’ you will allow the use of indicated cookies, device identifiers, web beacons or other similar technologies. Your settings can be changed in the browser on your device.

For certain purposes, legitimate interests may be relied on, rather than consent. You can read more about this in our Privacy and Cookie Policy.